SCP
0 0 0 0 0 0 0 0 0 0 0 0 0 0 0 0 0 0 0 0 0 0 0 0 0 0 0 0 0 0 0 0
0 0 0 0 0 0 0 0 0 0 0 0 0 0 0 0 0 0 0 0 0 0 0 0 0 0 0 0 0 0 0 0
0 0 0 0 0 0 0 0 0 0 0 0 0 0 0 0 0 0 0 0 0 0 0 0 0 0 0 0 0 0 0 0
0 0 0 0 0 0 0 0 0 0 0 0 0 0 0 0 0 0 0 0 0 0 0 0 0 0 0 0 0 0 0 0
0 0 0 0 0 0 0 0 0 0 0 0 0 0 0 0 0 0 0 0 0 0 0 0 0 0 0 0 0 0 0 0
0 0 0 0 0 0 0 0 0 0 0 0 0 0 0 0 0 0 0 0 0 0 0 0 0 0 0 0 0 0 0 0
0 0 0 0 0 0 0 0 0 0 0 0 0 0 0 0 0 0 0 0 0 0 0 0 0 0 0 0 0 0 0 0
0 0 0 0 0 0 0 0 0 0 0 0 0 0 0 0 0 0 0 0 0 0 0 0 0 0 0 0 0 0 0 0
0 0 0 0 0 0 0 0 0 0 0 0 0 0 0 0 0 0 0 0 0 0 0 0 0 0 0 0 0 0 0 0
0 0 0 0 0 0 0 0 0 0 0 0 0 0 0 0 0 0 0 0 0 0 0 0 0 0 0 0 0 0 0 0
0 0 0 0 0 0 0 0 0 0 0 0 0 0 0 0 0 0 0 0 0 0 0 0 0 0 0 0 0 0 0 0
0 0 0 0 0 0 0 0 0 0 0 0 0 0 0 0 0 0 0 0 0 0 0 0 0 0 0 0 0 0 0 0
0 0 0 0 0 0 0 0 0 0 0 0 0 0 0 0 0 0 0 0 0 0 0 0 0 0 0 0 0 0 0 0
0 0 0 0 0 0 0 0 0 0 0 0 0 0 0 0 0 0 0 0 0 0 0 0 0 0 0 0 0 0 0 0
0 0 0 0 0 0 0 0 0 0 0 0 0 0 0 0 0 0 0 0 0 0 0 0 0 0 0 0 0 0 0 0
0 0 0 0 0 0 0 0 0 0 0 0 0 0 0 0 0 0 0 0 0 0 0 0 0 0 0 0 0 0 0 0
0 0 0 0 0 0 0 0 0 0 0 0 0 0 0 0 0 0 0 0 0 0 0 0 0 0 0 0 0 0 0 0
0 0 0 0 0 0 0 0 0 0 0 0 0 0 0 0 0 0 0 0 0 0 0 0 0 0 0 0 0 0 0 0
0 0 0 0 0 0 0 0 0 0 0 0 0 0 0 0 0 0 0 0 0 0 0 0 0 0 0 0 0 0 0 0
0 0 0 0 0 0 0 0 0 0 0 0 0 0 0 0 0 0 0 0 0 0 0 0 0 0 0 0 0 0 0 0
Wind_Speed_500mb
43 41 44 45 47 48 47 46 44 41 37 33 20 14 10 11 12 23 23 20 15 15 17 20 23 24 23 25 28 29 32 33
40 48 51 53 53 54 51 49 42 30 17 9 7 2 5 19 16 16 14 14 14 16 17 20 21 22 25 27 29 31 32 32
57 61 61 56 54 48 32 20 17 6 3 10 12 22 20 21 15 14 15 15 16 16 18 20 20 23 25 27 29 29 31 32
65 61 54 39 29 22 23 29 31 32 35 31 25 22 20 17 15 16 18 16 16 17 18 20 23 25 27 28 29 31 33 33
66 56 50 46 40 34 32 34 40 39 34 29 25 23 21 19 20 20 20 18 17 18 19 22 25 27 28 30 30 31 33 35
61 55 51 42 34 38 42 42 39 36 33 31 29 26 23 24 24 23 21 18 19 20 22 25 28 28 28 31 32 31 33 35
55 55 50 42 44 45 44 43 40 39 36 34 32 29 28 29 27 24 21 20 22 23 24 28 31 31 30 30 32 33 35 35
61 55 50 51 49 48 47 45 42 41 38 37 34 32 33 31 30 27 24 23 25 27 29 30 30 32 32 32 33 35 37 37
53 52 51 50 49 51 48 43 41 41 39 40 37 37 35 33 31 29 28 28 30 32 32 32 30 32 34 34 35 37 36 38
50 48 51 52 51 54 48 44 45 43 42 41 41 39 37 35 34 33 33 34 35 35 35 34 32 34 36 36 37 37 36 34
42 44 50 53 52 50 48 46 45 43 42 42 41 41 39 37 38 38 39 40 40 38 36 35 35 36 39 40 39 36 33 31
28 33 36 38 40 44 45 46 40 42 43 42 41 40 40 43 45 44 46 45 43 41 39 37 37 39 40 41 38 36 34 33
18 24 27 31 35 39 43 40 41 43 41 40 41 43 47 49 50 50 50 48 45 44 42 40 40 39 39 41 39 35 35 35
10 15 20 25 29 32 33 35 38 38 39 42 45 49 51 53 53 54 54 52 48 47 46 45 41 39 39 38 37 33 33 34
4 6 9 12 17 21 27 33 39 39 41 45 50 52 53 54 56 57 56 54 53 51 49 46 45 41 39 36 35 34 35 32
13 15 16 19 23 28 32 38 42 45 49 52 55 57 58 59 59 60 59 57 55 53 52 49 47 43 41 36 34 36 37 36
19 22 24 29 33 36 41 48 52 56 58 59 61 62 64 64 62 62 61 59 59 56 54 50 50 47 44 39 37 38 38 39
33 35 37 39 41 41 48 53 58 62 62 63 65 66 67 68 67 66 61 61 60 56 54 54 55 48 44 39 40 37 38 41
33 34 36 39 39 41 46 52 56 59 62 65 68 70 73 74 72 68 66 63 59 54 51 53 53 48 41 41 40 35 38 41
32 33 37 40 37 43 48 53 56 61 65 68 72 74 75 75 73 70 65 63 59 55 53 54 46 45 40 43 36 36 38 40
Wind_Direction_500mb
168 165 158 154 149 146 143 137 129 124 117 104 78 60 23 349 312 283 278 279 302 317 329 334 339 338 338 339 343 346 348 348
160 151 148 144 142 139 135 128 120 109 107 51 53 105 297 270 254 255 285 300 310 323 328 331 333 333 338 342 342 344 344 342
151 145 143 142 138 134 130 127 125 85 241 233 196 233 236 236 257 283 292 300 309 316 319 323 328 334 335 336 336 335 334 334
149 145 144 145 154 178 194 201 233 240 206 212 233 240 237 249 267 278 281 290 300 309 318 322 328 327 327 326 327 328 328 330
158 166 177 182 193 206 206 192 187 197 219 234 237 238 243 255 267 271 277 286 300 307 314 317 318 319 317 317 322 325 325 322
174 183 188 194 195 181 181 190 207 223 235 235 237 240 248 258 263 268 276 287 297 303 309 312 308 307 311 316 320 321 317 313
192 191 193 199 192 194 202 214 226 234 234 239 240 242 249 258 264 268 274 288 292 297 299 299 304 310 310 312 314 314 309 309
194 200 206 203 203 211 220 230 232 235 237 240 242 246 251 259 264 269 276 283 286 289 287 292 300 305 309 310 309 309 307 308
208 217 214 213 219 228 233 231 234 239 242 243 245 248 254 260 267 274 276 276 277 280 285 290 297 304 306 308 307 305 306 308
230 229 223 227 234 236 234 233 237 242 245 247 248 253 259 264 268 272 272 271 273 276 282 289 296 301 306 303 300 301 301 302
236 236 233 238 240 235 236 240 244 249 251 249 251 256 264 271 273 272 269 268 270 274 282 288 295 302 298 295 295 295 300 314
219 232 238 237 236 236 240 246 251 250 251 254 259 267 274 275 274 271 266 267 271 276 281 286 293 293 293 294 297 296 304 305
218 226 233 237 241 245 250 254 253 252 255 261 268 272 275 275 274 272 270 270 273 277 281 284 284 283 284 288 292 295 296 300
228 237 242 247 250 251 250 250 250 253 258 264 270 276 278 279 277 274 272 274 275 278 279 276 275 276 280 283 286 287 292 304
325 291 275 264 262 261 256 253 253 258 267 273 277 280 281 281 278 276 277 277 275 275 275 273 273 275 277 278 278 284 292 303
316 309 303 288 278 269 264 261 266 271 274 278 282 283 284 284 283 281 279 276 276 275 271 269 269 271 272 273 278 283 292 304
301 294 289 283 280 279 276 274 276 278 280 282 282 282 282 283 283 282 281 277 275 271 270 267 264 267 270 273 276 279 292 301
301 297 292 288 285 281 277 277 277 279 281 281 282 282 283 283 283 283 280 276 274 270 266 262 263 264 270 272 276 282 290 299
300 299 297 295 295 291 285 283 284 286 285 284 284 284 283 282 282 280 277 276 274 270 265 259 260 262 267 271 276 282 288 300
317 315 308 305 309 295 293 292 291 289 288 286 284 284 283 280 278 276 275 274 272 266 259 260 259 262 263 271 274 278 289 298
Wind_Speed_850mb
43 41 44 45 47 48 47 46 44 41 37 33 20 14 10 11 12 23 23 20 15 15 17 20 23 24 23 25 28 29 32 33
40 48 51 53 53 54 51 49 42 30 17 9 7 2 5 19 16 16 14 14 14 16 17 20 21 22 25 27 29 31 32 32
57 61 61 56 54 48 32 20 17 6 3 10 12 22 20 21 15 14 15 15 16 16 18 20 20 23 25 27 29 29 31 32
65 61 54 39 29 22 23 29 31 32 35 31 25 22 20 17 15 16 18 16 16 17 18 20 23 25 27 28 29 31 33 33
66 56 50 46 40 34 32 34 40 39 34 29 25 23 21 19 20 20 20 18 17 18 19 22 25 27 28 30 30 31 33 35
61 55 51 42 34 38 42 42 39 36 33 31 29 26 23 24 24 23 21 18 19 20 22 25 28 28 28 31 32 31 33 35
55 55 50 42 44 45 44 43 40 39 36 34 32 29 28 29 27 24 21 20 22 23 24 28 31 31 30 30 32 33 35 35
61 55 50 51 49 48 47 45 42 41 38 37 34 32 33 31 30 27 24 23 25 27 29 30 30 32 32 32 33 35 37 37
53 52 51 50 49 51 48 43 41 41 39 40 37 37 35 33 31 29 28 28 30 32 32 32 30 32 34 34 35 37 36 38
50 48 51 52 51 54 48 44 45 43 42 41 41 39 37 35 34 33 33 34 35 35 35 34 32 34 36 36 37 37 36 34
42 44 50 53 52 50 48 46 45 43 42 42 41 41 39 37 38 38 39 40 40 38 36 35 35 36 39 40 39 36 33 31
28 33 36 38 40 44 45 46 40 42 43 42 41 40 40 43 45 44 46 45 43 41 39 37 37 39 40 41 38 36 34 33
18 24 27 31 35 39 43 40 41 43 41 40 41 43 47 49 50 50 50 48 45 44 42 40 40 39 39 41 39 35 35 35
10 15 20 25 29 32 33 35 38 38 39 42 45 49 51 53 53 54 54 52 48 47 46 45 41 39 39 38 37 33 33 34
4 6 9 12 17 21 27 33 39 39 41 45 50 52 53 54 56 57 56 54 53 51 49 46 45 41 39 36 35 34 35 32
13 15 16 19 23 28 32 38 42 45 49 52 55 57 58 59 59 60 59 57 55 53 52 49 47 43 41 36 34 36 37 36
19 22 24 29 33 36 41 48 52 56 58 59 61 62 64 64 62 62 61 59 59 56 54 50 50 47 44 39 37 38 38 39
33 35 37 39 41 41 48 53 58 62 62 63 65 66 67 68 67 66 61 61 60 56 54 54 55 48 44 39 40 37 38 41
33 34 36 39 39 41 46 52 56 59 62 65 68 70 73 74 72 68 66 63 59 54 51 53 53 48 41 41 40 35 38 41
32 33 37 40 37 43 48 53 56 61 65 68 72 74 75 75 73 70 65 63 59 55 53 54 46 45 40 43 36 36 38 40
Wind_Direction_850mb
168 165 158 154 149 146 143 137 129 124 117 104 78 60 23 349 312 283 278 279 302 317 329 334 339 338 338 339 343 346 348 348
160 151 148 144 142 139 135 128 120 109 107 51 53 105 297 270 254 255 285 300 310 323 328 331 333 333 338 342 342 344 344 342
151 145 143 142 138 134 130 127 125 85 241 233 196 233 236 236 257 283 292 300 309 316 319 323 328 334 335 336 336 335 334 334
149 145 144 145 154 178 194 201 233 240 206 212 233 240 237 249 267 278 281 290 300 309 318 322 328 327 327 326 327 328 328 330
158 166 177 182 193 206 206 192 187 197 219 234 237 238 243 255 267 271 277 286 300 307 314 317 318 319 317 317 322 325 325 322
174 183 188 194 195 181 181 190 207 223 235 235 237 240 248 258 263 268 276 287 297 303 309 312 308 307 311 316 320 321 317 313
192 191 193 199 192 194 202 214 226 234 234 239 240 242 249 258 264 268 274 288 292 297 299 299 304 310 310 312 314 314 309 309
194 200 206 203 203 211 220 230 232 235 237 240 242 246 251 259 264 269 276 283 286 289 287 292 300 305 309 310 309 309 307 308
208 217 214 213 219 228 233 231 234 239 242 243 245 248 254 260 267 274 276 276 277 280 285 290 297 304 306 308 307 305 306 308
230 229 223 227 234 236 234 233 237 242 245 247 248 253 259 264 268 272 272 271 273 276 282 289 296 301 306 303 300 301 301 302
236 236 233 238 240 235 236 240 244 249 251 249 251 256 264 271 273 272 269 268 270 274 282 288 295 302 298 295 295 295 300 314
219 232 238 237 236 236 240 246 251 250 251 254 259 267 274 275 274 271 266 267 271 276 281 286 293 293 293 294 297 296 304 305
218 226 233 237 241 245 250 254 253 252 255 261 268 272 275 275 274 272 270 270 273 277 281 284 284 283 284 288 292 295 296 300
228 237 242 247 250 251 250 250 250 253 258 264 270 276 278 279 277 274 272 274 275 278 279 276 275 276 280 283 286 287 292 304
325 291 275 264 262 261 256 253 253 258 267 273 277 280 281 281 278 276 277 277 275 275 275 273 273 275 277 278 278 284 292 303
316 309 303 288 278 269 264 261 266 271 274 278 282 283 284 284 283 281 279 276 276 275 271 269 269 271 272 273 278 283 292 304
301 294 289 283 280 279 276 274 276 278 280 282 282 282 282 283 283 282 281 277 275 271 270 267 264 267 270 273 276 279 292 301
301 297 292 288 285 281 277 277 277 279 281 281 282 282 283 283 283 283 280 276 274 270 266 262 263 264 270 272 276 282 290 299
300 299 297 295 295 291 285 283 284 286 285 284 284 284 283 282 282 280 277 276 274 270 265 259 260 262 267 271 276 282 288 300
317 315 308 305 309 295 293 292 291 289 288 286 284 284 283 280 278 276 275 274 272 266 259 260 259 262 263 271 274 278 289 298